Stations météo

réclame
Mon MeteoGroup
Middle Wallop, Grande-Bretagne (3749): Température de l'air & dewpoint: 21.02.2020 01:00:00 - 27.02.2020 01:00:00 (GMT)Middle Wallop, Grande-Bretagne (3749): Vitesse du vent & gusts: 21.02.2020 01:00:00 - 27.02.2020 01:00:00 (GMT)Middle Wallop, Grande-Bretagne (3749): Direction du vent: 21.02.2020 01:00:00 - 27.02.2020 01:00:00 (GMT)Middle Wallop, Grande-Bretagne (3749): reduced air pressure: 21.02.2020 01:00:00 - 27.02.2020 01:00:00 (GMT)Middle Wallop, Grande-Bretagne (3749): visibility: 21.02.2020 01:00:00 - 27.02.2020 01:00:00 (GMT)Middle Wallop, Grande-Bretagne (3749): Quantités de précipitations: 21.02.2020 01:00:00 - 27.02.2020 01:00:00 (GMT)
Date & Time tt [°C] td [°C] ff [km/h] ff [knt] fx [km/h] fx [knt] dd ppp [hPa] vv [km] rr [mm]
27.02.2020 01:00:00 - - - - - - - - - -
27.02.2020 00:00:00 2,4 -0,4 9 5 - - SSE 1005,0 30 0,0
26.02.2020 23:00:00 2,4 -0,5 8 4 - - S 1006,5 10 0,0
26.02.2020 22:00:00 2,3 -0,5 8 4 - - SW 1007,7 10 0,0
26.02.2020 21:00:00 2,4 -0,6 8 4 - - SW 1008,5 10 0,0
26.02.2020 20:00:00 3,1 -0,4 5 3 - - WSW 1009,2 10 0,0
26.02.2020 19:00:00 3,9 -0,7 11 6 - - W 1009,3 10 0,0
26.02.2020 18:00:00 4,2 -0,4 9 5 - - WSW 1009,4 10 0,0
26.02.2020 17:00:00 6,2 -0,4 18 10 - - W 1009,0 10 0,0
26.02.2020 16:00:00 7,6 -1,3 26 14 - - W 1008,7 10 0,0
26.02.2020 15:00:00 7,3 0,0 29 16 - - WNW 1008,1 40 0,0
26.02.2020 14:00:00 7,4 0,5 26 14 46 25 WNW 1007,9 40 0,0
26.02.2020 13:00:00 6,9 0,1 28 15 54 29 WNW 1007,4 30 0,0
26.02.2020 12:00:00 7,1 0,6 35 19 55 30 WNW 1007,0 30 0,0
26.02.2020 11:00:00 6,1 0,1 31 17 50 27 WNW 1006,6 10 0,0
26.02.2020 10:00:00 5,4 0,4 31 17 50 27 W 1005,9 10 0,0
26.02.2020 09:00:00 4,3 0,4 29 16 50 27 W 1005,1 10 0,0
26.02.2020 08:00:00 3,4 -0,1 26 14 46 25 W 1004,0 10 0,0
26.02.2020 07:00:00 2,9 -0,3 24 13 - - W 1003,0 10 0,0
26.02.2020 06:00:00 2,3 -0,8 26 14 - - W 1002,2 10 0,0
26.02.2020 05:00:00 1,6 -1,2 24 13 - - W 1001,5 10 0,0
26.02.2020 04:00:00 1,5 -1,2 21 11 - - W 1000,9 50 0,0
26.02.2020 03:00:00 0,7 -1,0 15 8 - - W 1000,3 10 0,0
26.02.2020 02:00:00 2,2 -1,5 16 9 - - W 1000,1 30 0,0
26.02.2020 01:00:00 2,3 -1,2 26 14 - - W 999,5 40 0,0
26.02.2020 00:00:00 2,7 -0,9 21 11 - - W 999,3 45 0,0
25.02.2020 23:00:00 2,0 -0,2 16 9 - - W 998,8 40 0,0
25.02.2020 22:00:00 2,1 0,2 24 13 - - W 998,6 10 0,0
25.02.2020 21:00:00 2,5 -0,1 26 14 46 25 W 998,4 10 0,0
25.02.2020 20:00:00 2,5 0,0 28 15 48 26 W 998,2 10 0,0
25.02.2020 19:00:00 3,7 0,5 31 17 57 31 W 998,1 10 0,0
25.02.2020 18:00:00 3,8 1,2 26 14 67 36 W 997,7 10 0,2
25.02.2020 17:00:00 3,9 1,4 28 15 50 27 W 997,6 10 0,0
25.02.2020 16:00:00 3,9 2,7 18 10 54 29 WSW 997,9 55 1,0
25.02.2020 15:00:00 6,7 1,0 28 15 - - W 998,5 10 0,0
25.02.2020 14:00:00 5,8 2,5 18 10 57 31 W 999,7 50 0,0
25.02.2020 13:00:00 7,7 3,0 31 17 - - W 1000,5 10 0,0
25.02.2020 12:00:00 7,0 3,3 21 11 - - W 1001,5 10 0,0
25.02.2020 11:00:00 6,2 2,8 21 11 46 25 WSW 1001,8 10 0,0
25.02.2020 10:00:00 6,2 3,4 18 10 - - W 1002,6 10 0,0
25.02.2020 09:00:00 6,1 3,7 18 10 - - WSW 1003,0 45 0,0
25.02.2020 08:00:00 4,9 3,0 15 8 - - WSW 1003,4 10 0,0
25.02.2020 07:00:00 4,6 2,5 16 9 - - W 1004,0 10 0,0
25.02.2020 06:00:00 4,5 2,8 18 10 - - WSW 1004,6 10 0,0
25.02.2020 05:00:00 4,3 2,6 13 7 - - WSW 1005,0 10 0,0
25.02.2020 04:00:00 4,5 2,8 15 8 - - WSW 1005,6 10 0,0
25.02.2020 03:00:00 5,6 3,4 21 11 - - W 1005,9 10 0,0
25.02.2020 02:00:00 6,1 3,6 21 11 - - W 1006,1 45 0,0
25.02.2020 01:00:00 6,6 4,0 24 13 - - W 1006,5 10 0,0
25.02.2020 00:00:00 6,6 3,7 22 12 - - WSW 1006,7 45 0,0
24.02.2020 23:00:00 7,5 4,6 18 10 - - W 1007,0 35 0,0
24.02.2020 22:00:00 7,1 4,2 16 9 - - W 1007,5 10 0,0
24.02.2020 21:00:00 8,0 4,8 24 13 - - W 1007,5 10 0,0
24.02.2020 20:00:00 8,3 5,0 26 14 54 29 W 1007,0 10 0,0
24.02.2020 19:00:00 9,4 5,9 31 17 50 27 W 1006,5 10 0,0
24.02.2020 18:00:00 10,5 6,5 34 18 57 31 W 1005,6 30 0,0
24.02.2020 17:00:00 11,5 8,4 35 19 54 29 WSW 1005,4 10 0,0
24.02.2020 16:00:00 11,4 9,5 31 17 48 26 WSW 1005,9 10 0,0
24.02.2020 15:00:00 10,8 9,7 26 14 50 27 SW 1006,0 10 0,0
24.02.2020 14:00:00 10,5 9,3 31 17 52 28 SW 1007,2 4,0 0,2
24.02.2020 13:00:00 10,3 9,4 28 15 57 31 SW 1007,7 10 1,8
24.02.2020 12:00:00 10,1 9,2 31 17 52 28 SW 1008,7 5 1,0
24.02.2020 11:00:00 10,1 9,0 29 16 59 32 SW 1009,3 4,5 0,2
24.02.2020 10:00:00 10,4 9,2 37 20 63 34 SW 1009,9 10 0,0
24.02.2020 09:00:00 10,7 8,6 35 19 59 32 SW 1010,4 10 0,0
24.02.2020 08:00:00 10,1 8,6 34 18 59 32 WSW 1011,4 10 0,0
24.02.2020 07:00:00 10,3 8,3 34 18 57 31 SW 1011,8 10 0,0
24.02.2020 06:00:00 10,5 10,0 29 16 - - SW 1014,0 40 0,2
24.02.2020 05:00:00 8,3 8,1 16 9 - - S 1015,1 1,7 0,4
24.02.2020 04:00:00 7,1 6,9 9 5 - - S 1017,3 1,8 0,6
24.02.2020 03:00:00 6,6 6,3 18 10 - - SSE 1018,9 1,6 2,0
24.02.2020 02:00:00 6,2 5,9 13 7 - - SE 1020,8 2,4 0,2
24.02.2020 01:00:00 6,3 5,8 11 6 - - SSE 1022,3 4,6 0,2
24.02.2020 00:00:00 6,7 6,0 8 4 - - SSE 1023,0 19 0,2
23.02.2020 23:00:00 6,9 5,3 4 2 - - S 1023,9 20 0,2
23.02.2020 22:00:00 7,1 4,3 5 3 - - SSW 1024,6 10 0,0
23.02.2020 21:00:00 7,6 3,4 2 1 - - W 1024,3 10 0,0
23.02.2020 20:00:00 7,8 3,5 4 2 - - W 1024,2 75 0,0
23.02.2020 19:00:00 8,2 3,0 5 3 - - W 1023,5 10 0,0
23.02.2020 18:00:00 8,9 2,7 9 5 - - WNW 1022,8 75 0,0
23.02.2020 17:00:00 9,6 3,7 13 7 - - NW 1021,9 10 0,0
23.02.2020 16:00:00 10,7 3,9 26 14 50 27 WNW 1020,2 75 0,0
23.02.2020 15:00:00 11,4 6,9 31 17 54 29 W 1018,9 10 0,0
23.02.2020 14:00:00 12,1 6,5 37 20 59 32 W 1017,9 45 0,0
23.02.2020 13:00:00 12,7 8,7 37 20 68 37 W 1016,6 30 0,0
23.02.2020 12:00:00 12,5 9,9 42 23 67 36 W 1015,7 50 0,2
23.02.2020 11:00:00 13,5 10,6 39 21 65 35 W 1014,6 10 0,0
23.02.2020 10:00:00 12,6 11,3 31 17 52 28 WSW 1013,9 10 0,0
23.02.2020 09:00:00 11,8 10,6 31 17 52 28 SW 1013,2 10 0,2
23.02.2020 08:00:00 11,3 10,5 31 17 57 31 WSW 1013,4 3,9 0,0
23.02.2020 07:00:00 11,2 10,2 34 18 54 29 WSW 1013,3 3,0 0,0
23.02.2020 06:00:00 11,1 10,2 29 16 52 28 SW 1012,9 9 0,0
23.02.2020 05:00:00 11,5 10,4 31 17 57 31 SW 1013,6 14 0,0
23.02.2020 04:00:00 11,4 10,4 35 19 63 34 SW 1014,3 24 0,2
23.02.2020 03:00:00 10,8 10,1 31 17 54 29 SW 1015,3 3,2 0,2
23.02.2020 02:00:00 9,1 8,3 22 12 - - SSW 1017,4 3,0 1,0
23.02.2020 01:00:00 8,9 7,2 21 11 - - SSW 1019,2 10 0,0
23.02.2020 00:00:00 9,0 6,3 16 9 - - WSW 1021,4 8 0,0
22.02.2020 23:00:00 9,3 6,6 22 12 - - SW 1021,5 12 0,0
22.02.2020 22:00:00 9,3 5,4 18 10 48 26 WSW 1022,3 20 0,0
22.02.2020 21:00:00 8,9 5,6 22 12 - - WSW 1022,4 10 0,0
22.02.2020 20:00:00 9,2 5,3 24 13 - - WSW 1022,5 10 0,0
22.02.2020 19:00:00 8,7 5,4 24 13 - - WSW 1022,3 24 0,0
22.02.2020 18:00:00 9,2 5,7 26 14 54 29 W 1022,0 10 0,0
22.02.2020 17:00:00 10,7 5,1 35 19 55 30 W 1021,5 10 0,0
22.02.2020 16:00:00 11,4 5,6 34 18 54 29 W 1021,1 10 0,0
22.02.2020 15:00:00 11,9 5,6 34 18 55 30 W 1020,1 10 0,0
22.02.2020 14:00:00 12,4 5,3 31 17 57 31 W 1020,0 10 0,0
22.02.2020 13:00:00 12,7 5,4 37 20 65 35 W 1019,3 10 0,0
22.02.2020 12:00:00 12,2 6,2 31 17 57 31 W 1019,5 24 0,0
22.02.2020 11:00:00 12,1 6,8 37 20 57 31 W 1018,8 29 0,0
22.02.2020 10:00:00 11,1 9,4 29 16 50 27 WSW 1018,1 10 0,0
22.02.2020 09:00:00 10,2 9,1 31 17 50 27 SW 1017,5 3,5 0,0
22.02.2020 08:00:00 9,7 8,7 29 16 55 30 SW 1017,2 9 0,0
22.02.2020 07:00:00 9,9 7,9 31 17 55 30 SW 1017,3 17 0,0
22.02.2020 06:00:00 9,3 7,6 28 15 55 30 SW 1017,3 12 0,0
22.02.2020 05:00:00 9,5 6,9 34 18 63 34 WSW 1017,4 13 0,0
22.02.2020 04:00:00 9,4 6,2 34 18 55 30 SW 1016,5 14 0,0
22.02.2020 03:00:00 9,0 5,6 34 18 63 34 WSW 1017,2 16 0,0
22.02.2020 02:00:00 8,9 5,6 37 20 59 32 SW 1017,6 10 0,0
22.02.2020 01:00:00 8,7 5,4 31 17 54 29 SW 1018,6 17 0,0
22.02.2020 00:00:00 9,0 5,3 35 19 54 29 SW 1019,5 10 0,0
21.02.2020 23:00:00 8,8 5,2 28 15 57 31 SW 1020,2 19 0,0
21.02.2020 22:00:00 9,2 5,4 31 17 54 29 SW 1020,7 10 0,0
21.02.2020 21:00:00 9,0 5,3 28 15 52 28 SW 1021,0 10 0,0
21.02.2020 20:00:00 8,8 5,7 29 16 52 28 SW 1021,5 10 0,0
21.02.2020 19:00:00 9,0 5,9 26 14 - - SW 1022,2 16 0,0
21.02.2020 18:00:00 8,9 5,6 28 15 - - SW 1021,9 18 0,0
21.02.2020 17:00:00 9,4 5,8 22 12 - - SW 1022,3 17 0,0
21.02.2020 16:00:00 9,6 5,5 28 15 - - SW 1022,2 19 0,0
21.02.2020 15:00:00 9,9 5,7 26 14 50 27 SW 1022,5 8 0,0
21.02.2020 14:00:00 9,7 5,1 24 13 - - SW 1022,7 10 0,0
21.02.2020 13:00:00 9,6 4,7 26 14 - - SW 1023,5 10 0,0
21.02.2020 12:00:00 9,3 4,7 28 15 46 25 SW 1024,0 25 0,0
21.02.2020 11:00:00 8,6 3,6 28 15 - - SW 1024,6 10 0,0
21.02.2020 10:00:00 7,7 4,0 24 13 - - SW 1024,5 10 0,0
21.02.2020 09:00:00 6,0 3,4 15 8 - - SW 1024,8 10 0,0
21.02.2020 08:00:00 5,2 3,0 16 9 - - SSW 1024,4 10 0,0
21.02.2020 07:00:00 4,1 2,5 18 10 - - SSW 1024,3 20 0,0
21.02.2020 06:00:00 3,5 1,8 15 8 - - SW 1024,6 10 0,0
21.02.2020 05:00:00 3,3 1,7 15 8 - - SSW 1024,7 10 0,0
21.02.2020 04:00:00 3,3 1,5 15 8 - - SW 1024,7 10 0,0
21.02.2020 03:00:00 3,1 1,3 13 7 - - SW 1024,9 21 0,0
21.02.2020 02:00:00 2,3 0,1 11 6 - - SW 1024,7 10 0,0
21.02.2020 01:00:00 2,4 0,0 9 5 - - WSW 1024,4 28 0,0

tt = Température de l'air
td = dewpoint
ff = Vitesse du vent
fx = gusts
dd = Direction du vent
ppp = reduced air pressure
vv = visibility
rr = Quantités de précipitations

stations d'obs. à proximité